Location: Unspecified
(0.0000°N, 0.0000°E)
Time: 14:53:17
(UTC+00:00)

TIGRISAT - Pass Details

Date: 14 December 2019
Orbit: 605 x 689 km, 97.7° (Epoch: 13 August)

Event Time Altitude Azimuth Distance (km) Brightness Sun altitude
Exits shadow 20:09:04 12° 174° (S) 1,849 ? -30.6°
Drops below altitude 10° 20:09:23 10° 175° (S) 1,974 ? -30.6°
Sets 20:11:37 0° 181° (S) 2,873 ? -31.1°
